#timestamp,LO_Frequency,Hit,StdDev 
1540846815.7,286046981.1,Y
1540846835.5,286046983.4,P
1540846855.4,286046981.4,P
1540846875.2,286046977.8,P
1540846895.1,286046977.6,Y
1540846896.0,286046977.6,P
1540846915.8,286046993.4,N
1540846935.6,286046990.1,N
1540846955.5,286046991.5,N
1540846975.3,286046992.8,N
1540846995.2,286046987.7,N
1540847015.9,286046983.4,Y
1540847035.7,286046993.2,P
1540847055.6,286046993.3,N
1540847075.4,286046996.7,N
1540847095.3,286046996.0,N
1540847115.1,286046997.2,N
1540847116.0,286046997.2,N
1540847135.8,286046999.7,N
1540847155.7,286047001.8,N
1540847175.5,286046999.9,N
1540847195.3,286047004.3,N
1540847215.2,286047007.1,N
1540847235.0,286047009.1,N
1540847235.9,286047009.1,N
1540847255.8,286047004.6,N
1540847275.6,286047002.9,N
1540847295.4,286047004.7,N
1540847315.3,286047007.8,N
1540847335.1,286047008.6,N
1540847355.8,286047008.6,N
1540847375.7,286047007.4,N
1540847395.5,286047005.2,N
1540847415.4,286047005.6,N
1540847435.2,286047007.3,N
1540847455.0,286047006.4,N
1540847455.9,286047006.4,N
1540847475.8,286047008.8,N
1540847495.6,286047010.4,N
1540847515.4,286047010.7,N
1540847535.3,286047008.4,N
1540847555.1,286047003.3,N
1540847575.9,286046998.5,N
1540847595.7,286046996.8,N
1540847615.5,286046993.5,N
1540847635.4,286046992.7,N
1540847655.2,286046990.5,N
1540847675.0,286046988.2,N
1540847675.9,286046988.2,N
1540847695.8,286046983.8,N
1540847715.6,286046982.3,N
1540847735.5,286046980.5,N
1540847755.3,286046980.9,N
1540847775.1,286046981.3,N
1540847795.9,286046979.1,N
1540847815.7,286046976.2,N
1540847835.5,286046980.2,N
1540847855.4,286046974.5,N
1540847875.2,286046977.7,N
1540847895.1,286046979.0,N
1540847896.0,286046979.0,N
1540847915.8,286046979.7,N
1540847935.6,286046971.0,N
1540847955.5,286046969.3,N
1540847975.3,286046966.7,N
1540847995.1,286046965.3,N
1540848015.9,286046963.5,N
1540848035.7,286046964.7,N
1540848055.6,286046966.4,N
1540848075.4,286046968.4,N
1540848095.2,286046971.6,N
1540848115.1,286046973.0,N
1540848116.0,286046973.0,N
1540848135.8,286046971.6,Y
1540848155.6,286046994.5,P
1540848175.5,286046997.3,N
1540848195.3,286046993.5,N
1540848215.2,286046994.6,N
1540848235.9,286046992.4,N
1540848255.7,286046989.7,N
1540848275.6,286046985.9,N
1540848295.4,286046988.4,N
1540848315.2,286046994.4,N
1540848335.1,286046995.8,N
1540848336.0,286046995.8,N
1540848355.8,286046999.7,N
1540848375.7,286046996.3,N
1540848395.5,286046991.2,N
1540848415.3,286046989.3,N
1540848435.2,286046994.4,N
1540848455.9,286046993.9,N
1540848475.7,286046991.9,N
1540848495.6,286046997.7,N
1540848515.4,286047001.1,N
1540848535.2,286047001.9,N
1540848555.1,286047001.2,N
1540848556.0,286047001.2,N
1540848575.8,286046995.5,N
1540848595.7,286046991.7,N
1540848615.5,286046990.2,N
1540848635.3,286046994.4,N
1540848655.2,286046993.9,N
1540848675.0,286046997.1,N
1540848675.9,286046997.1,N
1540848695.8,286046998.8,N
1540848715.6,286046998.1,N
1540848735.4,286047002.6,N
1540848755.3,286047004.2,N
1540848775.1,286047006.8,N
1540848776.0,286047006.8,N
1540848795.8,286047008.3,N
1540848815.7,286047009.3,N
1540848835.5,286047011.3,N
1540848855.3,286047011.4,N
1540848875.2,286047013.0,N
1540848895.0,286047016.3,N
1540848895.9,286047016.3,N
1540848915.8,286047016.9,N
1540848935.6,286047014.2,N
1540848955.4,286047013.0,N
1540848975.3,286047016.5,N
1540848995.1,286047014.9,N
1540849015.8,286047013.5,N
1540849035.7,286047012.2,N
1540849055.5,286047012.3,N
1540849075.4,286047015.2,N
1540849095.2,286047015.9,N
1540849115.0,286047019.9,N
1540849115.9,286047019.9,N
1540849135.8,286047021.3,N
1540849155.6,286047021.6,N
1540849175.4,286047020.8,N
1540849195.3,286047020.8,N
1540849215.1,286047021.1,Y
1540849235.9,286047010.7,P
1540849255.7,286047012.0,P
1540849275.5,286047013.5,P
1540849295.4,286047009.6,Y
1540849315.2,286046996.2,P
1540849335.0,286046992.9,N
1540849335.9,286046992.9,N
1540849355.8,286046991.0,N
1540849375.6,286046990.7,N
1540849395.5,286046988.2,N
1540849415.3,286046991.4,N
1540849435.1,286046990.1,N
1540849455.9,286046997.6,N
1540849475.7,286046996.9,N
1540849495.5,286046999.3,N
1540849515.4,286047001.1,N
1540849535.2,286047002.5,N
1540849555.1,286046998.0,N
1540849556.0,286046998.0,N
1540849575.8,286046990.7,N
1540849595.6,286046983.8,N
1540849615.5,286046982.3,N
1540849635.3,286046982.5,N
1540849655.1,286046979.8,N
1540849675.9,286046977.4,Y
1540849695.7,286046986.0,P
1540849715.6,286046980.6,P
1540849735.4,286046983.5,P
1540849755.2,286046984.0,Y
1540849775.1,286047002.4,P
1540849776.0,286047002.4,N
1540849795.8,286047001.2,N
1540849815.6,286046998.1,N
1540849835.5,286047004.2,N
1540849855.3,286047007.5,N
1540849875.2,286047001.6,N
1540849895.9,286046999.1,N
1540849915.7,286047000.3,N
1540849935.6,286047005.6,N
1540849955.4,286047003.3,N
1540849975.2,286047005.8,N
1540849995.1,286047008.3,N
1540849996.0,286047008.3,N
1540850015.8,286047008.5,N
1540850035.7,286047008.2,N
1540850055.5,286047007.4,N
1540850075.3,286047007.6,N
1540850095.2,286047004.7,N
1540850115.9,286047005.2,N
1540850135.7,286047007.1,N
1540850155.6,286047000.9,N
1540850175.4,286046998.5,N
1540850195.2,286046993.2,N
1540850215.1,286046989.4,N
1540850216.0,286046989.4,N
1540850235.8,286046989.5,N
1540850255.7,286046990.0,N
1540850275.5,286046988.3,N
1540850295.3,286046989.4,N
1540850315.2,286046988.6,N
1540850335.0,286046985.6,N
1540850335.9,286046985.6,N
1540850355.7,286046982.5,N
1540850375.6,286046980.3,N
1540850395.4,286046974.1,N
